719  
ASUS43 KGLD 140808  
RWRGLD  
 
GOODLAND FORECAST AREA HOURLY WEATHER ROUNDUP  
NATIONAL WEATHER SERVICE GOODLAND KS  
200 AM MDT FRI AUG 14 2020  
   
..OFFICIAL OBSERVATIONS
 
 
 
CITY SKY/WX TMP DP RH WIND PRES REMARKS
 
GOODLAND KS CLEAR 68 65 90 S10 30.01F  
HILL CITY KS CLEAR 69 66 90 E5 29.97S  
IMPERIAL NEB CLEAR 71 67 87 SE9 29.97F  
MCCOOK NEB CLEAR 69 66 90 E7 29.96F  
AKRON CO NOT AVBL  
BURLINGTON CO CLEAR 64 60 87 S9 30.04F  
LIMON CO CLEAR 66 58 75 S7 30.13F  

 
   
..UNOFFICIAL OBSERVATIONS
 
 
 
CITY SKY/WX TMP DP RH WIND PRES REMARKS
 
COLBY KS CLEAR 68 68 100 SW8 30.01F  
NORTON KS FAIR 68 64 88 SE3 30.00F  
YUMA CO FAIR 70 57 64 S9 30.01F  

 
 
 
CLICK HERE TO GO TO PREVIOUS BULLETINS.

The Nexlab KS Page
The Nexlab CO Page
The Nexlab NE Page Main Text Page